OV1-9 R/B, 2622

Orbit data source: Space-Track

OV1-9 R/B, 2622 is space debris in LEO originally from a launch on Sun, 11 Dec 1966 UTC launched from the Air Force Western Test Range (AFWTR). Debris objects in space refer to the collection of defunct objects orbiting the Earth. Examples of debris include non-operational satellites, rocket bodies, and fragments generated from explosions, collisions, or faulty payload assembly.

Loading next visibility...
Identifier
2622, 1966-111D
Orbit
LEO
Country
Flag of USUS
Related business
Manufacturer
ABL
Mission
Spacecraft
Bus & Motor
ALTAIR, Unknown motor
Mass
125 kg wet, 125 kg dry
Launch date (UTC)
1966-12-11 (59 years ago)
Launch vehicle
Unknown
Launch site
Air Force Western Test Range (AFWTR)
Object type
Payload
Rocket body
Debris
Shape & HBR
Unknown
Radar Cross Section
Medium (>0.1 m² and <1 m²)

Expand to show TLE details & history
Last TLE update: 1 day ago

TLE from 1 day ago
0 OV1-9 R/B
1 02622U 66111D   25309.47813349  .00001115  00000-0  44042-3 0  9990
2 02622  99.0890 323.7157 2223119  48.5335 328.6350 10.49446766221420
Epoch: 2025-11-05T11:28Z
TLE epoch observation values (Epoch: 2025-11-05T11:28:30.733Z)
Latitude
-0.00001°
Longitude
106.63742°
Altitude
923.875 km
Speed
7.999 km/s
True Right ascension
21h 34m 51s
True Declination
0° 00' 00"
Sunlit
Object was in daylight at epoch
Visualization orbit readout
Latitude
Unknown
Longitude
Unknown
Altitude
Unknown
Speed
Unknown
Apparent Right ascension
Unknown
Apparent Declination
Unknown
Sunlit
N/A
Visualization observer readout
Local Sidereal Time
14:06:22
Azimuth
Unknown
Elevation
Unknown
Doppler factor
Unknown
Orbital elements
Apogee altitude
4,390.34 km
Perigee altitude
473.237 km
Semi-major axis
8,809.926 km
Eccentricity
0.22231
Inclination
99.089°
RAAN
323.7157°
Arg. of periapsis
48.5335°
True anomaly
311.57998°
Mean anomaly
328.635°
Eccentric anomaly
320.53975°
Mean motion
2.62473 °/min
Orbital period
137.16 mins
BSTAR
0.00044042
Loading maneuver chart data...
Computing Atmospheric mass density...
Loading historical data...
Loading historical data...
Loading historical data...
Loading historical data...
Loading historical data...
Loading historical data...
Loading historical data...
Other satellites on launch #111 in the year 1966 (1966-12-11 UTC)

Documentation

Showing up to 5 results
|